Location: Unspecified
(45.6669°N, 0.0000°E)
Time: 14:50:46
(UTC+00:00)

ISS - Pass Details

Date: 21 May 2019
Orbit: 408 x 418 km, 51.6° (Epoch: 25 June)

Event Time Altitude Azimuth Distance (km) Brightness Sun altitude
Rises 22:58:38 0° 289° (WNW) 2,362 0.5 -22.8°
Reaches altitude 10° 23:00:55 10° 301° (WNW) 1,500 -0.4 -22.9°
Maximum altitude 23:03:54 28° 3° (N) 815 -1.7 -23.0°
Enters shadow 23:06:51 10° 65° (ENE) 1,490 -0.8 -23.1°
